Regional Weather Roundup
Issued by NWS

Home | Current Version | Previous Version | Text Only | Print | Product List | Glossary Off
Versions: 1 2 3 4 5 6 7 8 9 10 11 12 13 14 15 16 17 18 19 20 21 22 23 24 25 26 27 28 29 30 31 32 33 34 35 36 37 38 39 40 41 42 43 44 45 46 47 48 49 50

000
ASUS43 KFSD 152202
RWRSD

WEATHER ROUNDUP FOR SOUTH DAKOTA
NATIONAL WEATHER SERVICE SIOUX FALLS SD
500 PM CDT TUE APR 15 2014

NOTE: "FAIR" INDICATES FEW OR NO CLOUDS BELOW 12,000 FEET WITH NO
SIGNIFICANT WEATHER AND/OR OBSTRUCTIONS TO VISIBILITY.


SDZ001>005-009-010-012>017-152300-
NORTHWEST AND NORTH CENTRAL SOUTH DAKOTA

CITY           SKY/WX    TMP DP  RH WIND       PRES   REMARKS
BUFFALO          N/A     63  18  17 W17G24    29.48F
MOBRIDGE       PTSUNNY   53  20  27 SE23      29.65F
$$

SDZ012>016-024>037-041>051-057-063-072>074-152300-
SOUTHWEST AND SOUTH CENTRAL SOUTH DAKOTA

CITY           SKY/WX    TMP DP  RH WIND       PRES   REMARKS
RAPID CTY ARPT PTSUNNY   63  19  18 CALM      29.57F
PIERRE         MOSUNNY   64  24  21 SE17G25   29.60F
CUSTER         PTSUNNY   54  17  23 SW10      29.65F
PHILIP         SUNNY     66  18  15 SW5       29.58F
PINE RIDGE     SUNNY     65  16  15 W14G22    29.63F
WINNER         FAIR      66  23  19 S15G25    29.62F
$$

SDZ004>011-016>023-039-040-152300-
NORTHEAST SOUTH DAKOTA

CITY           SKY/WX    TMP DP  RH WIND       PRES   REMARKS
ABERDEEN       MOSUNNY   45  17  32 SE17G30   29.82F
WATERTOWN      MOSUNNY   41  16  36 S16G25    29.86F
SISSETON         N/A     35  15  44 SE17      29.92F WCI  25
$$

SDZ017-020-022-023-036>040-048>070-152300-
SOUTHEAST SOUTH DAKOTA

CITY           SKY/WX    TMP DP  RH WIND       PRES   REMARKS
SIOUX FALLS    PTSUNNY   46  20  35 S22G31    29.88F
HURON          MOSUNNY   49  18  29 SE18G31   29.78F
CHAMBERLAIN      N/A     59  24  26 SE23G33   29.67F
MITCHELL       SUNNY     52  26  36 S24G37    29.79F
YANKTON        MOSUNNY   52  25  35 S24       29.86F
$$

ABBREVIATIONS USED IN REMARKS
   TC - TEMPERATURE IN CELSIUS
  WCI - WIND CHILL INDEX
   HX - HEAT INDEX
  VSB - VISIBILITY




USA.gov is the U.S. government's official web portal to all federal, state and local government web resources and services.